Regional Weather Roundup
Issued by NWS

Home | Current Version | Previous Version | Graphics & Text | Print | Product List | Glossary On
Versions: 1 2 3 4 5 6 7 8 9 10 11 12 13 14 15 16 17 18 19 20 21 22 23 24 25 26 27 28 29 30 31 32 33 34 35 36 37 38 39 40 41 42 43 44 45 46 47 48 49 50
000
ASUS45 KABQ 220510
RWRNM
NEW MEXICO REGIONAL WEATHER ROUNDUP
NATIONAL WEATHER SERVICE ALBUQUERQUE NM
1100 PM MDT MON MAY 21 2018

NOTE: "FAIR" MEANS FEW OR NO CLOUDS BELOW 12,000 FEET AGL WITH NO
       SIGNIFICANT WEATHER OR OBSTRUCTIONS TO VISION.

      THIS PRODUCT IS RELEASED AS TWO VERSIONS.  ONE VERSION NEAR
      THE TOP OF THE HOUR CONTAINING PRELIMINARY DATA FROM ALBUQUERQUE
      AND OTHER STATIONS.  A FINAL VERSION WITH ADDITIONAL DATA IS
      ISSUED ABOUT 10 MINUTES AFTER THE HOUR.

NMZ501-503-504-510>518-220600-
NORTHWEST PLATEAU/NORTHCENTRAL MOUNTAINS

CITY           SKY/WX    TMP DP  RH WIND       PRES   REMARKS
FARMINGTON     FAIR      60  40  47 E13       29.99S
LOS ALAMOS     FAIR      48  41  79 N5        30.15F
SANTA FE       FAIR      50  49  96 N13       30.08F
TAOS           FAIR      46  43  89 E8        30.17F
ANGEL FIRE     FAIR      38  37  97 NW5       30.24F WCI  34

$$
NMZ402-403-502-505>509-220600-
WESTCENTRAL MOUNTAINS/SOUTHWEST MOUNTAINS

CITY           SKY/WX    TMP DP  RH WIND       PRES   REMARKS
GALLUP         FAIR      53  38  56 E8        30.02R
GRANTS         FAIR      54  43  67 S8G17     30.07S
SILVER CITY    FAIR      66   7  10 NW3       29.97R

$$
NMZ407-409-411-412-220600-
SOUTHERN DESERTS

CITY           SKY/WX    TMP DP  RH WIND       PRES   REMARKS
DEMING         FAIR      74  10   8 W12       29.88R
LAS CRUCES     FAIR      72  48  42 SE5       29.93R
HOLLOMAN AFB   FAIR      70  48  46 SE13      29.93F
ALAMOGORDO     MOCLDY    68  50  52 SW6       29.94R
T OR C         FAIR      68  50  52 N14G21    29.93R

$$
NMZ519>523-220600-
CENTRAL VALLEYS/CENTRAL HIGHLANDS

CITY           SKY/WX    TMP DP  RH WIND       PRES   REMARKS
ALBUQUERQUE    MOCLDY    60  48  64 N5        30.02S
DOUBLE EAGLE   FAIR      54  47  80 NE18G24   30.05F
MORIARTY ARPT  MOCLDY    55  52  89 N5        30.10S
CLINES CORNERS CLOUDY    51  45  79 E9        30.14F
BELEN          FAIR      57  52  84 NW6       30.01R
SOCORRO        MOCLDY    61  49  64 N8        29.99R

$$
NMZ524>526-539-540-220600-
SOUTHCENTRAL MOUNTAINS

CITY           SKY/WX    TMP DP  RH WIND       PRES   REMARKS
RUIDOSO        NOT AVBL

$$
NMZ527>531-220600-
NORTHEAST HIGHLANDS/NORTHEAST PLAINS

CITY           SKY/WX    TMP DP  RH WIND       PRES   REMARKS
LAS VEGAS      CLOUDY    49  47  93 E8        30.12F
RATON          FAIR      49  44  83 NE9       30.12F
CLAYTON        RAIN      56  53  90 W12       30.11S

$$
NMZ532>537-220600-
EASTCENTRAL PLAINS

CITY           SKY/WX    TMP DP  RH WIND       PRES   REMARKS
SANTA ROSA     TSTM      56  53  88 NE14      30.07S
TUCUMCARI      LGT RAIN  59  55  87 N6        30.08R
CANNON AFB     FAIR      67  60  76 E10       30.08R
CLOVIS AIRPORT FAIR      66  56  70 SE12      30.08R

$$
NMZ028-029-538-220600-
SOUTHEAST PLAINS

CITY           SKY/WX    TMP DP  RH WIND       PRES   REMARKS
ROSWELL        TSTM      61  58  90 W28G35    30.03R FOG
ARTESIA        TSTM      61  61 100 W33       30.00R
CARLSBAD       FAIR      79  55  43 SE17G28   29.95R
HOBBS          FAIR      72  57  60 SE16G24   29.99S


$$




USA.gov is the U.S. government's official web portal to all federal, state and local government web resources and services.